This demonstration page uses our WeatherBlox Daily Observations layout. Learn more.

Left ArrowRight Arrow

40.92945, -100.16068

Hourly Observations for April 28, 2020

Temp ( °F °C ) Dew Point ( °F °C ) Humidity (%) Winds ( mph kmh ) Pressure ( in mb ) Visibility ( mi km ) Precip ( " mm )
12:15 am 00:15 Clear 66 18.9 49 9.7 55 55 S 17 28 29.68 1005 10 16 0.00 0.00
12:35 am 00:35 Clear 65 18.3 50 9.8 58 58 S 21 33 29.68 1005 10 16 0.00 0.00
12:55 am 00:55 Clear 65 18.2 50 10.1 59 59 S 17 28 29.69 1005 10 16 0.00 0.00
1:15 am 01:15 Clear 65 18.5 51 10.3 59 59 SSW 15 24 29.70 1006 10 16 0.00 0.00
1:35 am 01:35 Clear 65 18.5 51 10.5 60 60 SSW 14 22 29.71 1006 10 16 0.00 0.00
1:55 am 01:55 Clear 65 18.6 51 10.6 60 60 SSW 13 20 29.68 1005 10 16 0.00 0.00
2:15 am 02:15 Clear 65 18.5 51 10.7 61 61 SW 14 22 29.70 1006 10 16 0.00 0.00
2:35 am 02:35 Clear 66 18.7 49 9.7 56 56 W 16 26 29.74 1007 10 16 0.00 0.00
2:55 am 02:55 Clear 64 17.7 48 9.1 57 57 WSW 8 13 29.72 1007 10 16 0.00 0.00
3:15 am 03:15 Clear 62 16.9 48 9.1 60 60 WSW 8 13 29.73 1007 10 16 0.00 0.00
3:35 am 03:35 Clear 60 15.5 49 9.5 68 68 WNW 7 11 29.75 1008 10 16 0.00 0.00
3:55 am 03:55 Clear 59 15 48 9.1 68 68 WNW 5 7 29.76 1008 10 16 0.00 0.00
4:15 am 04:15 Clear 57 13.9 48 8.8 72 72 W 3 6 29.77 1008 10 16 0.00 0.00
4:35 am 04:35 Clear 57 14.1 49 9.2 73 73 Calm 29.76 1008 10 16 0.00 0.00
4:55 am 04:55 Partly Cloudy 57 14 47 8.2 68 68 W 6 9 29.78 1008 10 16 0.00 0.00
5:15 am 05:15 Clear 58 14.6 47 8.3 66 66 NW 15 24 29.79 1009 10 16 0.00 0.00
5:35 am 05:35 Partly Cloudy 60 15.3 47 8.6 65 65 N 12 19 29.77 1008 10 16 0.00 0.00
5:55 am 05:55 Mostly Cloudy with Rain 59 15.2 49 9.3 68 68 N 12 19 29.77 1008 10 16 0.00 0.00
6:15 am 06:15 Partly Cloudy 57 13.8 50 10 78 78 NNW 10 17 29.80 1009 10 16 0.00 0.00
6:35 am 06:35 Partly Cloudy 58 14.7 48 8.8 68 68 NNW 15 24 29.80 1009 10 16 0.00 0.00
6:55 am 06:55 Sunny 57 14.1 48 8.8 71 71 NW 12 19 29.82 1010 10 16 0.00 0.00
7:15 am 07:15 Sunny 57 13.9 47 8.5 70 70 NNW 9 15 29.84 1010 10 16 0.00 0.00
7:35 am 07:35 Sunny 57 13.8 47 8.6 71 71 NNW 15 24 29.83 1010 10 16 0.00 0.00
7:55 am 07:55 Sunny 58 14.2 47 8.4 68 68 NNW 15 24 29.82 1010 10 16 0.00 0.00
8:15 am 08:15 Sunny 58 14.5 47 8.3 67 67 NNW 13 20 29.84 1011 10 16 0.00 0.00
8:35 am 08:35 Sunny 58 14.6 47 8.6 67 67 NW 16 26 29.85 1011 10 16 0.00 0.00
8:55 am 08:55 Sunny 59 15 47 8.4 65 65 NNW 18 30 29.84 1010 10 16 0.00 0.00
9:15 am 09:15 Sunny 59 15.1 47 8.5 65 65 NNW 18 30 29.85 1011 10 16 0.00 0.00
9:35 am 09:35 Sunny 60 15.6 48 8.8 64 64 NNW 15 24 29.84 1011 10 16 0.00 0.00
9:55 am 09:55 Sunny 62 16.5 48 9 61 61 NW 16 26 29.84 1011 10 16 0.00 0.00
10:15 am 10:15 Sunny 64 17.6 47 8.4 55 55 NW 22 35 29.84 1011 10 16 0.00 0.00
10:35 am 10:35 Sunny 65 18.3 46 7.9 51 51 NNW 22 35 29.84 1010 10 16 0.00 0.00
10:55 am 10:55 Sunny 66 19.1 46 7.6 47 47 N 23 37 29.83 1010 10 16 0.00 0.00
11:15 am 11:15 Sunny 67 19.5 45 7.3 45 45 N 20 31 29.84 1010 10 16 0.00 0.00
11:35 am 11:35 Sunny 68 20.1 44 6.8 42 42 N 21 33 29.83 1010 10 16 0.00 0.00
11:55 am 11:55 Sunny 69 20.4 45 7.3 43 43 NNW 16 26 29.83 1010 10 16 0.00 0.00
12:15 pm 12:15 Partly Cloudy 69 20.8 44 6.7 40 40 NNW 14 22 29.83 1010 10 16 0.00 0.00
12:35 pm 12:35 Partly Cloudy 71 21.5 44 6.7 38 38 N 18 30 29.82 1010 10 16 0.00 0.00
12:55 pm 12:55 Sunny 71 21.5 44 6.5 38 38 NNW 20 31 29.83 1010 10 16 0.00 0.00
1:15 pm 13:15 Partly Cloudy 72 22 43 6 36 36 NNW 17 28 29.83 1010 10 16 0.00 0.00
1:35 pm 13:35 Partly Cloudy 70 21 43 5.9 38 38 N 21 33 29.82 1010 10 16 0.00 0.00
1:55 pm 13:55 Mostly Cloudy 71 21.6 43 5.9 36 36 NNW 18 30 29.82 1010 10 16 0.00 0.00
2:15 pm 14:15 Cloudy with Haze 68 20 44 6.8 42 42 N 35 56 29.85 1011 5 8 0.00 0.00
2:35 pm 14:35 Mostly Cloudy 69 20.4 45 7 42 42 NNW 33 54 29.87 1011 7 11 0.00 0.00
2:55 pm 14:55 Partly Cloudy 67 19.4 43 6.2 42 42 N 35 56 29.89 1012 10 16 0.00 0.00
3:15 pm 15:15 Partly Cloudy 64 17.5 43 5.9 47 47 NNW 33 54 29.93 1014 10 16 0.00 0.00
3:35 pm 15:35 Mostly Cloudy 62 16.4 41 5.2 48 48 NNW 32 52 29.96 1015 10 16 0.00 0.00
3:55 pm 15:55 Cloudy with Light Rain 58 14.4 43 6.1 58 58 NNW 32 52 29.99 1016 10 16 0.00 0.00
4:15 pm 16:15 Cloudy 60 15.8 41 5 49 49 NW 29 46 29.99 1016 10 16 0.00 0.00
4:35 pm 16:35 Cloudy 54 12.3 47 8.2 76 76 N 13 20 29.99 1016 10 16 0.00 0.00
4:55 pm 16:55 Partly Cloudy 58 14.2 47 8.5 69 69 NNW 14 22 29.97 1015 10 16 0.00 0.00
5:15 pm 17:15 Sunny 60 15.7 45 7.3 58 58 NW 20 31 29.95 1014 10 16 0.00 0.00
5:35 pm 17:35 Sunny 62 16.9 38 3.6 41 41 NNW 23 37 29.94 1014 10 16 0.00 0.00
5:55 pm 17:55 Sunny 60 15.6 40 4.5 48 48 N 24 39 29.96 1015 10 16 0.00 0.00
6:15 pm 18:15 Sunny 60 15.5 39 3.8 46 46 NNW 14 22 29.94 1014 10 16 0.00 0.00
6:35 pm 18:35 Sunny 61 16 40 4.3 46 46 NNW 16 26 29.94 1014 10 16 0.00 0.00
6:55 pm 18:55 Mostly Cloudy with Haze 60 15.3 38 3.2 45 45 N 30 48 29.96 1015 5 8 0.00 0.00
7:15 pm 19:15 Partly Cloudy 57 14 38 3.5 49 49 NNW 21 33 29.96 1015 10 16 0.00 0.00
7:35 pm 19:35 Sunny 57 14.1 37 2.7 46 46 NNW 15 24 29.96 1015 10 16 0.00 0.00
7:55 pm 19:55 Sunny 57 13.9 36 2.3 46 46 NW 15 24 29.97 1015 10 16 0.00 0.00
8:15 pm 20:15 Sunny 55 13 38 3.1 51 51 NW 10 17 29.98 1015 10 16 0.00 0.00
8:35 pm 20:35 Clear 54 12 38 3.3 56 56 NW 12 19 29.99 1016 10 16 0.00 0.00
8:55 pm 20:55 Clear 52 11 38 3.5 60 60 WNW 9 15 30.01 1016 10 16 0.00 0.00
9:15 pm 21:15 Clear 51 10.5 39 4 64 64 WNW 10 17 30.03 1017 10 16 0.00 0.00
9:35 pm 21:35 Clear 52 11.1 37 2.6 56 56 NNW 13 20 30.03 1017 10 16 0.00 0.00
9:55 pm 21:55 Clear 53 11.5 34 1 49 49 N 14 22 30.04 1017 10 16 0.00 0.00
10:15 pm 22:15 Clear 50 10 34 1.2 55 55 N 9 15 30.05 1018 10 16 0.00 0.00
10:35 pm 22:35 Clear 48 9.1 35 1.9 61 61 N 9 15 30.06 1018 10 16 0.00 0.00
10:55 pm 22:55 Clear 45 7.1 36 2 70 70 NW 8 13 30.07 1018 10 16 0.00 0.00
11:15 pm 23:15 Clear 44 6.8 36 2 72 72 WNW 9 15 30.07 1018 10 16 0.00 0.00
11:35 pm 23:35 Clear 45 7.3 36 2.2 70 70 WNW 10 17 30.07 1018 10 16 0.00 0.00
11:55 pm 23:55 Clear 44 6.8 36 2.3 73 73 WNW 10 17 30.07 1018 10 16 0.00 0.00

Powered by AerisWeather